GW5574 Weather Reports


time (UTC)temp
F
wind
direction
speed
knots
gust
knots
rain 1hr
in
rain 24hr
in
rain mn
in
humidity
%
barometer
mb
20260505051513 62 49 0.9 5.2 0.00 0.13 0.00 53 1004.9
20260505041513 63 7 1.7 5.2 0.08 0.13 0.13 57 1004.0
20260505040014 60 356 1.7 3.5 0.08 0.13 0.13 75 1004.4
20260505034516 61 25 0.9 3.5 0.08 0.13 0.13 80 1004.3
20260505033022 64 287 0.0 4.3 0.08 0.13 0.13 73 1003.6
20260505031522 71 328 2.6 7.0 0.00 0.05 0.05 61 1003.4
20260505030012 71 224 3.5 6.1 0.00 0.05 0.05 68 1002.2
20260505024533 71 236 0.9 3.5 0.00 0.05 0.05 69 1001.8
20260505023018 70 227 0.9 3.5 0.00 0.05 0.05 70 1001.8
20260505021524 69 196 0.0 1.7 0.00 0.05 0.05 71 1001.5
20260505020022 68 219 0.0 0.9 0.00 0.05 0.05 72 1001.4
20260505014512 68 220 0.0 0.0 0.00 0.05 0.05 70 1001.2
20260505013021 70 220 0.0 0.0 0.00 0.05 0.05 66 1001.0
20260505011522 71 220 0.0 1.7 0.00 0.05 0.05 63 1000.9
20260505010024 72 233 0.0 0.9 0.00 0.05 0.05 63 1000.8
20260505004508 73 232 0.0 1.7 0.00 0.05 0.05 61 1000.6
20260505003015 74 200 0.0 1.7 0.00 0.05 0.05 58 1000.4
20260505001518 75 227 0.9 2.6 0.00 0.05 0.05 54 1000.5
20260505000030 77 223 1.7 3.5 0.00 0.05 0.05 51 1000.5
20260504234524 78 227 1.7 4.3 0.00 0.05 0.05 50 1000.7
20260504233010 80 226 2.6 5.2 0.00 0.05 0.05 48 1000.8
20260504231524 80 219 1.7 7.0 0.00 0.05 0.05 48 1001.0
20260504230020 80 219 2.6 6.1 0.00 0.05 0.05 47 1001.2
20260504224527 80 229 2.6 7.0 0.00 0.05 0.05 48 1001.2
20260504223027 80 259 3.5 8.7 0.00 0.05 0.05 46 1001.2
20260504221513 80 208 3.5 6.1 0.00 0.05 0.05 45 1001.4
20260504220021 80 220 3.5 9.6 0.00 0.05 0.05 48 1001.4
20260504214522 80 283 3.5 10.4 0.00 0.05 0.05 48 1001.4
20260504213027 80 195 3.5 10.4 0.00 0.05 0.05 47 1001.5
20260504211529 80 207 4.3 9.6 0.00 0.05 0.05 47 1001.6
20260504210014 80 206 3.5 8.7 0.00 0.05 0.05 46 1001.7
20260504204518 80 203 3.5 9.6 0.00 0.05 0.05 48 1001.7
20260504203031 80 214 2.6 9.6 0.00 0.05 0.05 47 1001.8
20260504201528 80 257 2.6 7.0 0.00 0.05 0.05 48 1002.0
20260504200028 79 225 3.5 9.6 0.00 0.05 0.05 48 1002.1
20260504194528 79 226 2.6 12.2 0.00 0.05 0.05 50 1002.4
20260504193022 79 199 3.5 11.3 0.00 0.05 0.05 50 1002.5
20260504191529 78 225 4.3 10.4 0.00 0.05 0.05 52 1002.6
20260504190029 78 219 4.3 9.6 0.00 0.05 0.05 49 1002.6
20260504184533 78 143 2.6 7.0 0.00 0.05 0.05 53 1002.4
20260504183030 77 247 2.6 7.8 0.00 0.05 0.05 54 1002.4
20260504181524 77 218 3.5 7.8 0.00 0.05 0.05 53 1002.7
20260504180032 76 224 5.2 8.7 0.00 0.05 0.05 53 1002.7
20260504174525 76 136 6.1 12.2 0.00 0.05 0.05 51 1002.8
20260504173026 76 207 2.6 8.7 0.00 0.05 0.05 55 1002.9
20260504171530 76 207 3.5 10.4 0.00 0.05 0.05 53 1003.1
20260504081512 54 235 0.0 0.9 0.01 0.04 0.04 93 1007.0